Location: Olsztyn
(53.7767°N, 20.4765°E)
Time: 16:18:48
(UTC+02:00)

A-11 Canister half - Pass Details

Date: 29 January 2022
Orbit: 1513 x 1686 km, 47.2° (Epoch: 25 May)

Event Time Altitude Azimuth Distance (km) Brightness Sun altitude
Rises 14:42:39 0° 208° (SSW) 4,797 13.5 9.5°
Reaches altitude 10° 14:46:15 10° 198° (SSW) 3,788 12.6 9.2°
Maximum altitude 14:54:08 30° 142° (SE) 2,500 10.3 8.4°
Drops below altitude 10° 15:01:49 10° 86° (E) 3,701 10.6 7.6°
Sets 15:05:16 0° 77° (ENE) 4,672 11.0 7.2°
